FW9167 Weather Reports


Display with metric or nautical units.
time (UTC)temp
F
wind
direction
speed
MPH
gust
MPH
rain 1hr
in
rain 24hr
in
rain mn
in
humidity
%
barometer
mb
20260904151602 45 287 0.0 2.0 0.00 0.00 0.00 97 1016.1
20260904150104 44 250 1.0 1.0 0.00 0.00 0.00 97 1016.0
20260904144601 43 324 0.0 0.0 0.00 0.00 0.00 97 1015.8
20260904143102 42 324 0.0 1.0 0.00 0.00 0.00 97 1015.6
20260904141605 40 321 0.0 2.0 0.00 0.00 0.00 97 1015.4
20260904134602 40 340 0.0 1.0 0.00 0.00 0.00 96 1015.2
20260904133102 41 300 0.0 3.0 0.00 0.00 0.00 96 1014.9
20260904131603 41 335 0.0 2.0 0.00 0.00 0.00 96 1014.8
20260904130103 42 350 0.0 1.0 0.00 0.00 0.00 96 1014.6
20260904124604 42 257 1.0 1.0 0.00 0.00 0.00 96 1014.4
20260904123104 43 271 0.0 0.0 0.00 0.00 0.00 97 1014.4
20260904121603 43 271 0.0 1.0 0.00 0.00 0.00 97 1014.4
20260904120106 43 256 1.0 2.0 0.00 0.00 0.00 96 1014.4
20260904114602 43 267 0.0 1.0 0.00 0.00 0.00 96 1014.1
20260904113104 44 24 0.0 2.0 0.00 0.00 0.00 96 1014.1
20260904111602 44 226 0.0 1.0 0.00 0.00 0.00 96 1014.4
20260904104602 44 20 1.0 3.0 0.00 0.00 0.00 96 1013.7
20260904103102 44 224 0.0 1.0 0.00 0.00 0.00 96 1014.1
20260904101601 44 224 0.0 1.0 0.00 0.00 0.00 96 1013.8
20260904094607 44 323 0.0 1.0 0.00 0.00 0.00 96 1013.4
20260904093102 44 323 0.0 1.0 0.00 0.00 0.00 96 1013.4
20260904091601 44 323 0.0 0.0 0.00 0.00 0.00 96 1013.6
20260904084602 44 111 0.0 1.0 0.00 0.00 0.00 96 1013.2
20260904083102 44 111 0.0 1.0 0.00 0.00 0.00 96 1013.2
20260904081602 44 225 0.0 0.0 0.00 0.00 0.00 96 1012.9
20260904080105 44 225 0.0 1.0 0.00 0.00 0.00 96 1012.9
20260904074602 44 127 0.0 2.0 0.00 0.00 0.00 96 1012.9
20260904073101 44 239 0.0 1.0 0.00 0.00 0.00 96 1012.7
20260904071602 44 226 1.0 2.0 0.00 0.00 0.00 96 1012.7
20260904070106 45 219 0.0 1.0 0.00 0.00 0.00 96 1012.7
20260904064603 45 98 0.0 1.0 0.00 0.00 1.71 96 1013.1
20260904063106 45 131 0.0 1.0 0.00 0.00 1.71 96 1013.0
20260904061604 45 69 0.0 5.0 0.00 0.00 1.71 95 1012.7
20260904060105 45 56 0.0 3.0 0.00 0.00 1.70 95 1013.0
20260904054603 45 98 0.0 5.0 0.00 0.00 1.70 95 1012.9
20260904053107 46 31 0.0 4.0 0.00 0.00 1.68 95 1013.1
20260904051603 46 136 0.0 1.0 0.00 0.00 1.62 95 1013.2
20260904050106 46 105 0.0 2.0 0.00 0.00 1.55 95 1013.4
20260904044603 46 94 0.0 2.0 0.00 0.00 1.53 95 1013.2
20260904043103 46 38 0.0 1.0 0.00 0.00 1.50 94 1013.1
20260904034604 46 32 1.0 4.0 0.00 0.00 1.35 92 1012.1
20260904033103 46 288 2.0 2.0 0.00 0.00 1.29 92 1012.1
20260904031609 46 301 0.0 3.0 0.00 0.00 1.22 92 1011.9
20260904030105 47 225 1.0 7.0 0.00 0.00 1.15 91 1011.6
20260904024602 48 206 2.0 3.0 0.00 0.00 1.09 93 1011.2
20260904023102 49 128 0.0 2.0 0.00 0.00 1.02 93 1011.1
20260904021602 49 115 0.0 2.0 0.00 0.00 0.97 93 1010.8
20260904020105 49 107 0.0 1.0 0.00 0.00 0.93 93 1010.9
20260904014603 49 281 0.0 1.0 0.00 0.00 0.89 92 1010.9
20260904013106 49 308 0.0 1.0 0.00 0.00 0.87 92 1010.9
20260904011603 49 267 0.0 3.0 0.00 0.00 0.82 91 1010.9
20260904010104 50 246 2.0 6.0 0.00 0.00 0.80 90 1011.0
20260904004606 51 219 0.0 1.0 0.00 0.00 0.76 92 1010.9
20260904003103 52 217 1.0 2.0 0.00 0.00 0.72 92 1010.9
20260904001602 53 281 0.0 0.0 0.00 0.00 0.69 91 1010.9
20260904000105 53 281 0.0 0.0 0.00 0.00 0.65 91 1010.8
20260903234602 53 283 0.0 0.0 0.00 0.00 0.61 90 1011.0
20260903233104 53 282 0.0 1.0 0.00 0.00 0.58 89 1011.2
20260903231604 54 233 0.0 1.0 0.00 0.00 0.54 92 1011.3
20260903224607 54 210 0.0 2.0 0.00 0.00 0.51 90 1011.5
20260903223102 55 354 0.0 1.0 0.00 0.00 0.50 90 1011.7
20260903221602 54 354 0.0 1.0 0.00 0.00 0.49 91 1012.1
20260903214603 54 276 0.0 1.0 0.00 0.00 0.47 90 1012.7
20260903213103 54 282 0.0 1.0 0.00 0.00 0.43 89 1012.8
20260903211602 54 41 0.0 3.0 0.00 0.00 0.42 89 1012.5
20260903210103 54 22 0.0 2.0 0.00 0.00 0.39 87 1012.7
20260903203106 56 288 0.0 1.0 0.00 0.00 0.35 84 1013.0
20260903201604 58 123 0.0 0.0 0.00 0.00 0.29 82 1013.0
20260903200103 59 122 0.0 1.0 0.00 0.00 0.24 79 1013.2
20260903194603 60 128 0.0 1.0 0.00 0.00 0.22 74 1013.0
20260903193103 60 108 0.0 4.0 0.00 0.00 0.22 72 1012.9
20260903191605 61 139 0.0 3.0 0.00 0.00 0.22 71 1013.2
20260903183106 58 17 0.0 5.0 0.00 0.00 0.22 78 1013.5
20260903181606 58 323 1.0 2.0 0.00 0.00 0.22 79 1013.7
20260903180104 58 309 0.0 2.0 0.00 0.00 0.22 79 1013.9
20260903174603 57 208 0.0 1.0 0.00 0.00 0.22 80 1014.0
20260903173103 57 103 0.0 1.0 0.00 0.00 0.22 79 1014.0
20260903171603 57 110 0.0 2.0 0.00 0.00 0.22 80 1014.0
20260903170105 58 97 0.0 1.0 0.00 0.00 0.22 78 1014.0
20260903164603 58 126 1.0 3.0 0.00 0.00 0.22 80 1013.9
20260903163104 57 79 1.0 3.0 0.00 0.00 0.22 83 1014.0
20260903161605 55 22 2.0 4.0 0.00 0.00 0.22 89 1014.0
20260903154604 54 145 0.0 3.0 0.00 0.00 0.22 90 1014.2